Location: Ellerstadt
(49.4644°N, 8.2615°E)
Time: 20:56:40
(UTC+00:00)

Vanguard 1 - Pass Details

Date: 20 June 2021
Orbit: 651 x 3831 km, 34.2° (Epoch: 29 July)

Event Time Altitude Azimuth Distance (km) Brightness Sun altitude
Rises 00:12:46 0° 265° (W) 7,712 14.5 -16.4°
Reaches altitude 10° 00:18:55 10° 259° (W) 6,368 14.0 -16.2°
Maximum altitude 00:35:10 39° 200° (SSW) 3,214 12.1 -15.6°
Drops below altitude 10° 00:44:57 10° 136° (SE) 3,879 12.8 -15.1°
Sets 00:47:42 0° 128° (SE) 4,525 13.3 -15.0°
